Home > Weather > Wichita > Past weeks

Flag for U.S.A. Weather for the Past 2 Weeks in Wichita, Kansas, U.S.A.

Now
33 °F

Passing clouds.


Feels Like: 33 °F
Forecast: 27 / 50 °F
Wind: No wind

Location: Wichita Mid-Continent Airport

Current Time: Feb 6, 2016 at 2:27:54 AM

Latest Report: Feb 6, 2016 at 1:53 AM


Visibility: 10 mi

Pressure: 30.31 "Hg

Humidity: 75%

Dew point: 26 °F

Location of WichitaLocation

Historic Weather in Wichita — Graph

°F

Wichita Temperature Yesterday

Maximum temperature yesterday: 52 °F (at 3:53 PM)
Minimum temperature yesterday: 28 °F (at 1:53 AM)
Average temperature yesterday: 38 °F

High & Low Weather Summary for the Past Weeks

 TemperatureHumidityPressure
High70 °F (Jan 29, 1:53 PM)100% (Feb 2, 3:53 AM)30.44 "Hg (Feb 2, 3:53 AM)
Low18 °F (Feb 4, 7:53 AM)19% (Feb 4, 3:53 PM)29.34 "Hg (Feb 2, 4:53 AM)
Average38 °F64%30.00 "Hg
* Reported Jan 22 12:53 AM — Feb 6 12:53 AM, Wichita, Weather by CustomWeather, © 2016

Note: Actual official high and low records may vary slightly from our data, if they occured in-between our weather recording intervals... More about our weather records

Advertising

Wichita Weather History for the Previous 24 Hours

 ConditionsComfort  
Time TempWeatherWind HumidityBarometerVisibility
12:53 AM
Sat, Feb 6
35 °FMostly cloudy.6 mph70%30.30 "Hg10 mi
11:53 PM
Fri, Feb 5
35 °FOvercast.6 mph67%30.30 "Hg10 mi
10:53 PM36 °FPassing clouds.6 mph62%30.29 "Hg10 mi
9:53 PM38 °FPartly cloudy.10 mph55%30.29 "Hg10 mi
8:53 PM37 °FPassing clouds.8 mph60%30.30 "Hg10 mi
7:53 PM37 °FPassing clouds.3 mph57%30.29 "Hg10 mi
6:53 PM41 °FPassing clouds.8 mph51%30.28 "Hg10 mi
5:53 PM46 °FScattered clouds.8 mph48%30.27 "Hg10 mi
4:53 PM50 °FBroken clouds.5 mph41%30.26 "Hg10 mi
3:53 PM52 °FPartly sunny.9 mph37%30.26 "Hg10 mi
2:53 PM50 °FPartly sunny.7 mph36%30.27 "Hg10 mi
1:53 PM51 °FPartly sunny.7 mph33%30.28 "Hg10 mi
12:53 PM48 °FBroken clouds.7 mph36%30.32 "Hg10 mi
11:53 AM47 °FBroken clouds.3 mph34%30.37 "Hg10 mi
10:53 AM42 °FPassing clouds.5 mph41%30.38 "Hg10 mi
9:53 AM36 °FScattered clouds.8 mph52%30.39 "Hg10 mi
8:53 AM31 °FBroken clouds.5 mph67%30.41 "Hg10 mi
7:53 AM29 °FPartly sunny.3 mph69%30.40 "Hg10 mi
6:53 AM29 °FPassing clouds.5 mph69%30.39 "Hg10 mi
5:53 AM29 °FPassing clouds.3 mph69%30.37 "Hg10 mi
4:53 AM29 °FOvercast.5 mph69%30.35 "Hg10 mi
3:53 AM30 °FOvercast.6 mph66%30.34 "Hg10 mi
2:53 AM30 °FPassing clouds.3 mph64%30.35 "Hg10 mi
Weather by CustomWeather, © 2016

See weather overviewHow to use our weather pages